Location: Herne
(51.3333°N, 1.1333°E)
Time: 22:18:02
(UTC+00:00)

Daily predictions for brighter satellites

Satellite Brightness Start Highest point End
(mag) Time Altitude Azimuth Time Altitude Azimuth Time Altitude Azimuth
Meteor 2-9 Rocket 4.3 18:11:21 10° S 18:17:11 87° ESE 18:22:55 10° NNE
Cosmos 1300 Rocket 4.1 18:16:31 10° SSE 18:20:36 38° E 18:24:44 10° NNE
CENTAUR R/B 3.2 18:16:03 10° NW 18:23:53 76° NE 18:32:39 10° SE
Sich 1 Rocket 3.6 18:20:24 10° S 18:24:52 65° E 18:29:26 10° NNE
NOSS 2-2 (E) 3.2 18:21:31 10° SW 18:25:05 88° SE 18:29:17 10° NE
Cosmos 1833 Rocket 3.9 18:20:37 10° NNW 18:25:16 25° NE 18:29:54 10° E
Cosmos 2298 Rocket 4.4 18:21:52 10° S 18:26:54 45° ESE 18:31:58 10° NE
Cosmos 1975 3.7 18:24:07 10° SSW 18:28:08 57° WNW 18:32:10 10° N
Resurs 01 Rocket 3.7 18:27:13 10° ENE 18:28:19 11° NE 18:29:26 10° NE
Iridium 4 Rocket 4.0 18:24:07 10° S 18:29:21 73° W 18:35:05 10° N
CSL-04 Debris 4.1 18:26:11 10° SSE 18:31:32 74° ENE 18:36:57 10° NNW
Cosmos 1025 Rocket 3.0 18:28:52 10° N 18:33:15 65° ENE 18:37:37 10° SSE
Helios 1A Rocket 4.2 18:29:24 10° S 18:33:21 45° W 18:37:22 10° NNW
CSL-04 Rocket 3.7 18:28:04 10° SSE 18:33:30 73° ENE 18:39:03 10° NNW
NOSS 2-2 (D) 3.1 18:31:25 10° SW 18:34:57 87° SE 18:39:04 10° NE
ATLAS 2AS CENTAUR R/B 3.9 18:28:52 10° SSE 18:35:02 26° ESE 18:41:11 10° ENE
Cosmos 1937 Rocket 4.1 18:29:52 10° SW 18:35:03 63° WNW 18:40:15 10° NNE
Okean 2 Rocket 3.2 18:30:44 10° S 18:35:06 54° E 18:39:28 10° NNE
YAOGAN 1 2.8 18:31:44 10° S 18:36:03 78° WSW 18:40:25 10° NNW
ATLAS 3B R/B 3.3 18:29:42 10° NW 18:36:11 45° NNE 18:42:35 11° E
SKYMED 2 4.1 18:32:57 10° N 18:37:17 64° WNW 18:41:34 10° SSW
SWAS 4.4 18:34:42 10° NNW 18:39:02 80° ENE 18:43:19 10° SE
Abrixas rocket 3.0 18:37:10 10° W 18:39:47 34° SSW 18:42:11 12° SE
CREW DRAGON DEMO-1 DEB 3.4 18:38:40 10° W 18:41:37 49° SSW 18:44:16 12° SE
Cosmos 1513 Rocket 4.4 18:36:34 10° S 18:42:44 69° E 18:48:49 10° NNE
Cosmos 1536 Rocket 3.6 18:38:36 10° N 18:43:02 62° ENE 18:47:28 10° SSE
Cosmos 1125 Rocket 3.9 18:42:35 10° S 18:47:33 42° ESE 18:52:33 10° NE
SJ-6B 3.6 18:48:31 13° SE 18:51:23 30° ENE 18:54:44 10° N
USA 238 DEB 4.3 18:46:08 10° NW 18:53:14 65° SW 19:00:37 10° SSE
USA 238 4.3 18:46:14 10° NW 18:53:20 66° SW 19:00:44 10° SSE
CZ-4 R/B 2.8 18:49:42 10° S 18:53:43 44° W 18:57:43 10° NNW
Cosmos 2150 Rocket 4.1 18:49:04 10° SSW 18:54:25 68° ESE 18:59:52 10° NNE
SJ-11-01 4.3 18:50:01 10° SSE 18:54:43 85° WSW 18:59:27 10° NNW
Cosmos 1674 2.8 18:51:38 10° N 18:55:27 55° ENE 18:59:13 10° SSE
CZ-2C R/B 3.5 18:50:26 10° S 18:55:51 73° WSW 19:01:34 10° NNW
Cosmos 1464 Rocket 3.9 18:49:56 10° S 18:56:04 81° E 19:02:18 10° NNE
Cosmos 1092 Rocket 4.2 18:50:16 10° N 18:56:16 50° ENE 19:02:16 10° SSE
Okean-O 4.3 18:53:30 10° SSW 18:57:38 37° W 19:01:47 10° NNW
Cosmos 2285 Rocket 4.3 18:52:23 10° S 18:58:19 45° ESE 19:04:20 10° NE
MOS 1 Rocket 3.1 18:57:50 10° NNE 19:02:13 59° E 19:06:26 10° S
FREGAT/IRIS 3.2 19:04:41 27° E 19:05:04 28° ENE 19:07:22 10° N
ARGOS 3.2 19:06:02 10° SSE 19:11:24 87° WSW 19:16:50 10° NNW
CZ-2C R/B 3.1 19:07:05 10° NNE 19:12:21 41° E 19:17:38 10° SSE
Cosmos 1340 Rocket 3.8 19:15:11 24° E 19:15:21 24° E 19:18:38 10° NE
Cosmos 1733 3.7 19:13:48 12° SSE 19:17:00 36° E 19:20:31 10° NNE
Cosmos 2151 Rocket 3.7 19:13:16 10° SSW 19:17:45 82° W 19:22:18 10° N
Lacrosse 5 rocket 2.4 19:13:42 10° WNW 19:17:51 41° N 19:20:43 19° ENE
Cosmos 2082 Rocket 3.1 19:13:30 10° NNW 19:18:32 32° NE 19:21:17 21° E
MOS 1 4.3 19:13:13 10° SSE 19:18:51 65° ENE 19:24:31 10° NNW
NOSS 2-2 (C) 4.3 19:16:22 10° WSW 19:19:51 44° NW 19:23:58 10° NE
BREEZE-M DEB (TANK) 4.2 19:19:03 10° W 19:21:59 31° SSW 19:27:36 13° SE
DMSP B5D2-2 4.4 19:17:12 10° NNE 19:22:13 41° E 19:27:11 10° SSE
BREEZE-M R/B 4.2 19:12:49 10° WSW 19:22:54 48° S 19:24:25 29° ESE
Cosmos 494 Rocket 4.4 19:18:24 10° NNW 19:23:37 64° WSW 19:28:49 10° S
Meteor 1-15 Rocket 4.2 19:22:49 10° S 19:28:29 81° E 19:34:18 10° NNE
Cosmos 1805 3.1 19:24:58 10° S 19:28:50 68° E 19:32:46 10° NNE
OBJECT-B 1.3 19:28:48 39° E 19:29:03 39° ENE 19:32:08 10° N
Ariane Rocket 3.0 19:28:10 10° SSE 19:33:15 90° WSW 19:38:23 10° NNW
SL-08 RB Rocket 3.9 19:28:45 10° S 19:33:18 74° WSW 19:37:51 10° NNW
H-2A R/B 3.1 19:30:04 10° S 19:34:51 44° W 19:39:47 10° NNW
Cosmos 1269 Rocket 4.0 19:30:15 10° NNW 19:35:37 86° WSW 19:39:33 19° SSE
Cosmos 1626 1.9 19:37:02 10° N 19:40:46 76° ENE 19:42:02 39° SSE
Okean 1-7 Rocket 4.1 19:36:41 10° N 19:41:01 40° ENE 19:41:50 37° E
Terra 4.0 19:42:51 11° NE 19:42:57 11° NE 19:44:10 10° NE
Cosmos 2263 Rocket 4.4 19:39:08 10° W 19:43:39 24° NW 19:48:13 10° NNE
MetOp-A 4.1 19:40:20 15° SSE 19:44:48 90° NW 19:50:12 10° NNW
USA 186 2.7 19:42:34 17° S 19:44:49 49° W 19:48:02 10° NNW
COSMOS 2406 3.1 19:39:07 10° NNW 19:44:49 84° ENE 19:47:55 28° SSE
Cosmos 1455 Rocket 4.2 19:47:18 27° ENE 19:47:18 27° ENE 19:50:03 10° NNE
Cosmos 1844 Rocket 3.1 19:41:46 10° SW 19:47:18 64° NW 19:52:54 10° NNE
ISS -3.9 19:44:02 10° W 19:47:25 83° N 19:47:46 69° ENE
ATLAS CENTAUR R/B 3.8 19:48:14 10° NNW 19:49:16 11° N 19:50:17 10° NNE
Cosmos 2278 Rocket 2.6 19:51:32 36° ESE 19:51:32 36° ESE 19:56:39 10° NE
Lacrosse 4 Rocket 1.7 19:48:28 10° NNW 19:52:26 47° NE 19:52:52 45° ENE
Cosmos 1844 4.0 19:49:19 10° SW 19:54:58 69° WNW 20:00:37 10° NNE
Meteor 2-5 Rocket 4.0 19:49:27 10° NNW 19:55:06 69° W 20:00:46 10° S
Meteor 1-22 Rocket 4.3 19:50:29 10° S 19:56:22 72° E 20:02:28 10° NNE
Meteor 1-24 Rocket 3.7 19:51:53 10° NNW 19:57:28 82° W 20:01:37 19° S
Cosmos 909 Rocket 4.2 19:50:51 10° NW 19:57:29 60° NE 19:59:54 37° ESE
Exosat Rocket 3.6 19:54:07 10° SSW 19:59:20 77° WNW 20:04:27 10° NNE
Cosmos 2266 Rocket 4.4 19:53:55 10° N 19:59:33 38° ENE 20:00:34 36° E
SL-14 R/B 3.3 19:56:46 10° NNW 20:00:43 76° W 20:01:55 43° S
Okean 1 Rocket 3.5 19:57:04 10° SSW 20:01:30 64° WNW 20:05:59 10° N
Meteor 2-19 Rocket 4.4 19:55:31 10° N 20:01:36 61° ENE 20:03:47 39° SE
NOSS 3-4 (A) 3.3 19:56:27 10° SSW 20:02:20 69° SE 20:08:42 10° NE
NOSS 3-4 (C) 3.3 19:56:33 10° SSW 20:02:26 69° SE 20:08:48 10° NE
Resurs 01 Rocket 1.6 20:03:26 57° ESE 20:03:57 62° ENE 20:08:22 10° N
Cosmos 1833 Rocket 2.6 20:04:14 10° NNW 20:09:56 86° WSW 20:11:54 43° SSE
Cosmos 1470 4.3 20:12:29 24° NNE 20:12:29 24° NNE 20:14:13 10° NNE
Cosmos 1766 4.0 20:06:50 10° SSW 20:10:41 53° WNW 20:14:35 10° N
CZ-2C R/B 4.2 20:06:35 10° NNE 20:09:58 43° ENE 20:09:58 43° ENE
Cosmos 2251 Rocket 3.6 20:07:29 10° NNW 20:12:51 63° ENE 20:13:44 54° ESE
CENTAUR R/B 4.2 20:07:03 10° NW 20:14:26 40° WSW 20:22:00 11° S
ERS-1 Rocket 4.1 20:17:40 28° NE 20:17:40 28° NE 20:21:30 10° N
IGS 5A 4.4 20:18:58 37° NNE 20:18:58 37° NNE 20:21:59 10° N
ARIANE 5 R/B 3.0 20:20:05 48° NE 20:20:05 48° NE 20:23:44 10° N
SPOT 3 Rocket 3.6 20:20:51 41° S 20:22:38 73° WSW 20:27:49 10° NNW
Cosmos 1634 Rocket 4.2 20:18:44 10° SSW 20:24:53 71° WNW 20:31:07 10° N
ATLAS 2AS CENTAUR R/B 2.9 20:17:11 10° SW 20:25:10 83° SE 20:33:02 10° NE
ATLAS 3B R/B 2.8 20:20:29 10° NW 20:27:18 69° SW 20:29:50 41° SSE
Resurs 1-3 4.1 20:26:18 44° SSW 20:27:21 56° W 20:31:42 10° NNW
Landsat 7 4.1 20:27:59 54° NE 20:27:59 54° NE 20:32:15 10° N
Cosmos 1892 Rocket 4.0 20:23:30 10° NNW 20:27:46 57° W 20:28:36 48° SW
Meteor 1-21 Rocket 4.2 20:27:02 10° N 20:32:48 66° ENE 20:33:16 63° ESE
SPOT 5 4.0 20:33:48 34° NE 20:33:48 34° NE 20:38:04 10° N
Meteor 2-10 4.5 20:34:18 48° NE 20:34:18 48° NE 20:38:31 10° NNE
Cosmos 1655 Rocket 3.9 20:30:03 10° N 20:36:22 84° E 20:37:50 56° SSE
Cosmos 1461 3.8 20:35:15 10° NW 20:39:30 47° NNE 20:39:30 47° NNE
Cosmos 1340 Rocket 4.3 20:50:43 30° W 20:51:39 35° WNW 20:55:22 10° N
CZ-2C R/B 4.0 20:47:30 10° N 20:52:38 40° WNW 20:57:48 10° SW
Lacrosse 5 rocket 2.3 20:52:59 10° WNW 20:56:20 50° NW 20:56:20 50° NW
MetOp-B 4.2 20:58:51 66° WSW 20:59:05 67° WSW 21:04:27 10° NNW
Cosmos 2098 Rocket 4.1 20:53:59 10° NNW 21:00:46 69° W 21:01:45 58° SW
Cosmos 2279 Rocket 4.4 20:57:29 23° SSW 21:01:24 62° WNW 21:07:38 10° N
OBJECT-B 3.7 21:01:59 15° W 21:01:59 15° W 21:03:37 10° NW
Cosmos 2082 Rocket 2.4 20:57:27 10° NW 21:03:00 60° WSW 21:03:08 60° WSW
Spot 2 Rocket 3.7 21:05:26 65° NW 21:05:26 65° NW 21:09:49 10° NNW
Meteor 2-21 4.4 21:03:49 10° N 21:09:42 75° NE 21:09:42 75° NE
Cosmos 1809 Rocket 4.4 21:08:09 10° N 21:14:13 85° NW 21:14:13 85° NW
Terra 3.3 21:21:44 32° N 21:21:44 32° N 21:24:24 10° N
Cosmos 1140 Rocket 4.4 21:17:45 10° NNW 21:21:18 43° N 21:21:18 43° N
Cosmos 407 Rocket 4.3 21:22:50 10° NNW 21:26:26 46° NNW 21:26:26 46° NNW
SPOT 1/Viking Rocket 4.3 21:29:22 50° WNW 21:29:22 50° WNW 21:33:30 10° NNW
ATLAS CENTAUR R/B 4.1 21:26:39 10° NNW 21:27:26 14° NNW 21:27:26 14° NNW
Lacrosse 4 Rocket 3.8 21:27:33 10° WNW 21:29:10 19° WNW 21:29:10 19° WNW
Cosmos 2278 Rocket 3.0 21:33:01 30° WSW 21:35:29 48° NW 21:41:00 10° NNE
Resurs 01 Rocket 4.0 21:41:01 18° W 21:41:01 18° W 21:43:58 10° NW
USA 229 DEB 4.4 21:41:35 10° NW 21:48:22 46° NNE 21:49:03 45° NE
USA 229 4.5 21:41:40 10° NW 21:48:28 46° NNE 21:49:09 45° NE
ERS-1 Rocket 4.5 21:57:40 34° NW 21:57:40 34° NW 22:00:44 10° NNW
ATLAS 2AS CENTAUR R/B 3.9 22:09:22 10° W 22:16:55 44° NNW 22:24:15 10° NE
Cosmos 1943 Rocket 4.5 22:24:03 15° NE 22:24:03 15° NE 22:25:02 10° NNE
NOSS 3-1 (C) 4.3 22:31:31 10° NW 22:37:24 62° NNW 22:37:24 62° NNW
CZ-4C R/B 4.1 22:45:17 25° NNE 22:45:17 25° NNE 22:48:07 10° NE
COSMOS 2455 4.3 22:57:42 33° N 22:57:42 33° N 23:01:59 10° NNE
Cosmos 2297 Rocket 4.2 22:53:02 10° NNW 22:56:26 23° NNE 22:56:26 23° NNE
Cosmos 2369 Rocket 4.3 23:10:31 20° NNE 23:10:31 20° NNE 23:12:14 10° NNE
SL-16 R/B 4.3 23:50:37 24° NE 23:50:37 24° NE 23:55:07 10° N
